Regional Weather Roundup
Issued by NWS Newport/Morehead, NC

Current Version | Previous Version | Text Only | Print | Product List | Glossary Off
Versions: 1 2 3 4 5 6 7 8 9 10 11 12 13 14 15 16 17 18 19 20 21 22 23 24 25 26 27 28 29 30 31 32 33 34 35 36 37 38 39 40 41 42 43 44 45 46 47 48 49 50

000
ASUS42 KMHX 260424
RWRMHX
WEATHER ROUNDUP FOR EASTERN NORTH CAROLINA
NATIONAL WEATHER SERVICE NEWPORT/MOREHEAD CITY NC
1200 AM EDT SUN APR 26 2015

NOTE: "FAIR" INDICATES FEW OR NO CLOUDS BELOW 12,000 FEET
WITH NO SIGNIFICANT WEATHER AND/OR OBSTRUCTIONS TO VISIBILITY

NCZ015>017-031-032-045>047-102-103-260500-
NORTH COAST

CITY           SKY/WX    TMP DP  RH WIND       PRES   REMARKS
EDENTON        CLOUDY    50  49  96 N8        29.63R FOG
ELIZABETH CITY CLOUDY    51  49  92 N13       29.64S
KITTY HAWK     DRIZZLE   53  53 100 E3        29.59F
MANTEO         LGT RAIN  54  53  97 NE8       29.59F

$$

NCZ045>047-081-094-103-104-260500-
CENTRAL COAST

CITY           SKY/WX    TMP DP  RH WIND       PRES   REMARKS
FRISCO         CLOUDY    57  57 100 NE6       29.56F
SWANQUARTER      N/A     55 N/A N/A N6        29.56S

$$

NCZ095-097-098-100-101-260500-
SOUTHERN COAST

CITY           SKY/WX    TMP DP  RH WIND       PRES   REMARKS
BEAUFORT       CLOUDY    63  62  97 NW6       29.58R
CEDAR ISLAND     N/A     63 N/A N/A NW2G8     29.62R
JACKSONVILLE   CLOUDY    62  60  93 W7        29.60R
PINEY ISLAND   CLOUDY   N/A N/A N/A N5        29.58S
WILMINGTON     CLOUDY    68  66  93 W7        29.61S


$$

NCZ011>013-027>030-043-044-078>080-089-090>093-098-260500-
COASTAL PLAIN

CITY           SKY/WX    TMP DP  RH WIND       PRES   REMARKS
AHOSKIE        DRIZZLE   47  46  97 N6        29.66F
CLINTON        CLOUDY    60  60 100 CALM      29.62F FOG
ELIZABETHTOWN  CLOUDY    64  64 100 CALM      29.62S
GOLDSBORO      NOT AVBL
GREENVILLE     CLOUDY    55  54  94 NE5       29.66R FOG
HAVELOCK       CLOUDY    62  59  90 N6        29.60R
KENANSVILLE    CLOUDY    60  58  96 CALM      29.62F
KINSTON        CLOUDY    57  57  97 NW3       29.62R FOG
NEW BERN       CLOUDY    60  57  89 CALM      29.61S
RICHLANDS      CLOUDY    59  55  88 CALM      29.61S
ROCKY MOUNT    CLOUDY    52  51  97 N9        29.64S FOG
WASHINGTON     LGT RAIN  53  52  97 N7        29.63R
WHITEVILLE     CLOUDY    66  65  94 CALM      29.60F

$$

AMZ130-135-150-152-154-156-158-170-250-252-270-ANZ085-086-088-633-658-670-260500-
MARINE OBSERVATIONS

STATION/POSITION TIME  TEMP    WIND        PRES    WAVE   SWELL
                       AIR SEA DIR/SP/G            HT/PER HT/PER
                 (UTC) (F)     (DEG/KT/KT) (MB)    (FT/S) (FT/S)
CHESAPEAKE LIGHT 0400   46      30/ 21/ 22 1005.1
64 E VA BEACH    0350   55 59   70/ 17/ 19 1002.2    3/ 4   2/ 7
DUCK             0300   52 54   60/ 14/ 15 1002.1
2 E DUCK         0311      54                N/A     4/ 4
10 NE DUCK       NOT AVBL
OREGON INLET     0300   53 58   60/ 11/ 13 1002.2
HATTERAS CG      0306   60 65   50/  5/  9 1000.9
DIAMOND BUOY     0350   66 76  360/  8/ 10 1000.6    4/ 6   3/ 6
CAPE LOOKOUT     0400   66     260/ 12/ 15 1001.1
BEAUFORT LAB     0312   64 63  320/  2/  4 1000.8
27 SE WRIGHTSVLE 0400   68 72  270/ 16/ 19   N/A
5 SE WRIGHTSVLE  0308   68 65  240/ 10/ 14 1002.4
225 S CAPE HAT   0350   73 71  220/ 23/ 29 1005.0    6/ 6   2/13
41 SE CHARLESTON 0350   71 71  220/ 19/ 25 1004.3    5/ 6   2/10

$$


USA.gov is the U.S. government's official web portal to all federal, state and local government web resources and services.